This demonstration page uses our WeatherBlox Daily Observations layout. Learn more.

Left ArrowRight Arrow

38.83388, -104.82136

Hourly Observations for January 25, 2022

Temp ( °F °C ) Dew Point ( °F °C ) Humidity (%) Winds ( mph kmh ) Pressure ( in mb ) Visibility ( mi km ) Precip ( " mm )
12:58 am 00:58 Cloudy 28 -2.1 13 -10.4 53 53 Calm 29.64 1004 10 16 0.00 0.00
1:58 am 01:58 Cloudy 28 -2.5 14 -10.1 56 56 Calm 29.63 1003 10 16 0.00 0.00
2:58 am 02:58 Cloudy 27 -2.9 13 -10.5 56 56 Calm 29.65 1004 10 16 0.00 0.00
3:58 am 03:58 Cloudy 25 -4 14 -10 63 63 WNW 5 7 29.65 1004 10 16 0.00 0.00
4:58 am 04:58 Cloudy 24 -4.4 15 -9.6 67 67 WNW 9 15 29.67 1005 10 16 0.00 0.00
5:38 am 05:38 Mostly Clear 25 -4 16 -9 69 69 W 15 24 29.69 1006 10 16 0.00 0.00
5:58 am 05:58 Mostly Clear 24 -4.3 15 -9.5 67 67 W 17 28 29.70 1006 10 16 0.00 0.00
6:18 am 06:18 Mostly Cloudy 23 -5 16 -9 74 74 W 13 20 29.71 1006 10 16 0.00 0.00
6:28 am 06:28 Partly Cloudy 23 -5 16 -9 74 74 WNW 13 20 29.71 1006 10 16 0.00 0.00
6:58 am 06:58 Mostly Cloudy 22 -5.3 16 -8.9 76 76 W 16 26 29.72 1007 10 16 0.00 0.00
7:58 am 07:58 Partly Cloudy 24 -4.7 16 -9 72 72 W 22 35 29.75 1008 10 16 0.00 0.00
8:33 am 08:33 Cloudy with Light Snow 27 -3 16 -9 64 64 W 17 28 29.75 1008 10 16 0.00 0.00
8:56 am 08:56 Cloudy 27 -3 16 -9 64 64 WNW 16 26 29.77 1008 10 16 0.00 0.00
8:58 am 08:58 Cloudy 26 -3.3 16 -9.1 65 65 WNW 17 28 29.77 1008 10 16 0.00 0.00
9:58 am 09:58 Cloudy 27 -2.7 18 -8 67 67 WNW 15 24 29.81 1009 10 16 0.00 0.00
10:58 am 10:58 Cloudy 26 -3.1 15 -9.2 63 63 WNW 24 39 29.86 1011 10 16 0.00 0.00
11:19 am 11:19 Windy with Snow Likely 27 -3 16 -9 64 64 WNW 22 35 29.88 1012 10 16 0.00 0.00
11:30 am 11:30 Cloudy 27 -3 16 -9 64 64 WNW 23 37 29.88 1012 10 16 0.00 0.00
11:58 am 11:58 Cloudy 26 -3.1 15 -9.2 63 63 W 17 28 29.88 1012 10 16 0.00 0.00
12:02 pm 12:02 Windy with Snow Likely 27 -3 16 -9 64 64 WNW 23 37 29.88 1012 9 14 0.00 0.00
12:37 pm 12:37 Windy with Snow Likely 25 -4 18 -8 74 74 NW 22 35 29.90 1012 8 13 0.00 0.00
12:58 pm 12:58 Windy with Snow Likely 26 -3.5 16 -8.9 67 67 WNW 21 33 29.91 1013 9 14 0.00 0.00
1:03 pm 13:03 Windy with Snow Likely 27 -3 16 -9 64 64 WNW 21 33 29.91 1013 8 13 0.00 0.00
1:10 pm 13:10 Cloudy 27 -3 16 -9 64 64 WNW 17 28 29.92 1013 10 16 0.00 0.00
1:13 pm 13:13 Windy with Snow Likely 27 -3 16 -9 64 64 WNW 20 31 29.92 1013 10 16 0.00 0.00
1:25 pm 13:25 Cloudy 27 -3 16 -9 64 64 WNW 18 30 29.92 1013 10 16 0.00 0.00
1:36 pm 13:36 Windy with Snow Likely 27 -3 16 -9 64 64 WNW 20 31 29.91 1013 10 16 0.00 0.00
1:51 pm 13:51 Cloudy 27 -3 18 -8 69 69 WNW 15 24 29.91 1013 10 16 0.00 0.00
1:55 pm 13:55 Cloudy with Light Snow 27 -3 16 -9 64 64 WNW 18 30 29.91 1013 10 16 0.00 0.00
1:58 pm 13:58 Cloudy with Light Snow 26 -3.2 15 -9.3 63 63 WNW 15 24 29.91 1013 10 16 0.00 0.00
2:03 pm 14:03 Cloudy with Light Snow 27 -3 16 -9 64 64 NW 17 28 29.91 1013 9 14 0.00 0.00
2:16 pm 14:16 Cloudy with Light Snow 25 -4 16 -9 69 69 W 16 26 29.92 1013 2 4 0.00 0.00
2:46 pm 14:46 Cloudy with Light Snow 23 -5 18 -8 80 80 W 14 22 29.94 1014 5 8 0.00 0.00
2:58 pm 14:58 Windy with Snow Likely 23 -4.8 18 -7.9 79 79 W 20 31 29.94 1014 5 8 0.00 0.00
3:13 pm 15:13 Cloudy with Light Snow 23 -5 18 -8 80 80 WNW 16 26 29.96 1014 4 6 0.00 0.00
3:18 pm 15:18 Cloudy with Light Snow 23 -5 18 -8 80 80 WNW 18 30 29.96 1015 6 10 0.00 0.00
3:43 pm 15:43 Cloudy with Light Snow 23 -5 18 -8 80 80 W 16 26 29.96 1015 8 13 0.00 0.00
3:58 pm 15:58 Cloudy with Light Snow 22 -5.3 17 -8.1 81 81 W 14 22 29.99 1016 9 14 0.00 0.00
4:03 pm 16:03 Cloudy with Light Snow 23 -5 18 -8 80 80 W 12 19 29.99 1016 9 14 0.00 0.00
4:08 pm 16:08 Cloudy with Light Snow 23 -5 18 -8 80 80 WNW 13 20 29.99 1016 8 13 0.00 0.00
4:58 pm 16:58 Cloudy with Light Snow 21 -6.1 16 -8.8 81 81 WNW 14 22 30.01 1016 4 6 0.00 0.00
5:08 pm 17:08 Cloudy with Light Snow 21 -6 18 -8 86 86 W 15 24 30.00 1016 5 8 0.00 0.00
5:28 pm 17:28 Cloudy with Light Snow 21 -6 16 -9 80 80 W 10 17 30.01 1016 9 14 0.00 0.00
6:08 pm 18:08 Cloudy with Light Snow 21 -6 16 -9 80 80 W 13 20 30.04 1017 9 14 0.00 0.00
6:18 pm 18:18 Cloudy with Light Snow 21 -6 14 -10 74 74 W 10 17 30.04 1017 9 14 0.00 0.00
6:43 pm 18:43 Cloudy with Light Snow 21 -6 14 -10 74 74 WNW 9 15 30.06 1018 9 14 0.00 0.00
6:58 pm 18:58 Cloudy with Light Snow 20 -6.4 14 -10.1 75 75 W 10 17 30.06 1018 9 14 0.00 0.00
7:38 pm 19:38 Cloudy 19 -7 14 -10 79 79 W 6 9 30.07 1018 10 16 0.00 0.00
7:58 pm 19:58 Cloudy 20 -6.8 14 -10 78 78 WNW 5 7 30.07 1018 10 16 0.00 0.00
8:33 pm 20:33 Cloudy 19 -7 16 -9 86 86 ENE 3 6 30.06 1018 10 16 0.00 0.00
8:43 pm 20:43 Cloudy 19 -7 14 -10 79 79 ESE 5 7 30.07 1018 10 16 0.00 0.00
8:45 pm 20:45 Cloudy with Light Snow 19 -7 14 -10 79 79 ESE 5 7 30.07 1018 10 16 0.00 0.00
8:58 pm 20:58 Cloudy with Light Snow 19 -7.1 14 -9.8 81 81 ESE 8 13 30.06 1018 9 14 0.00 0.00
9:58 pm 21:58 Cloudy with Light Snow 18 -7.6 15 -9.3 88 88 E 9 15 30.06 1018 9 14 0.00 0.00
10:58 pm 22:58 Cloudy with Light Snow 19 -7.5 17 -8.5 93 93 E 12 19 30.05 1018 9 14 0.00 0.00
11:08 pm 23:08 Cloudy with Light Snow 19 -7 18 -8 93 93 E 13 20 30.04 1017 9 14 0.00 0.00
11:18 pm 23:18 Cloudy with Light Snow 18 -8 16 -9 93 93 E 13 20 30.04 1017 9 14 0.00 0.00
11:25 pm 23:25 Mostly Cloudy 18 -8 16 -9 93 93 E 12 19 30.04 1017 9 14 0.00 0.00
11:35 pm 23:35 Mostly Cloudy 18 -8 16 -9 93 93 E 13 20 30.03 1017 9 14 0.00 0.00
11:40 pm 23:40 Partly Cloudy 18 -8 16 -9 93 93 E 13 20 30.03 1017 9 14 0.00 0.00
11:58 pm 23:58 Clear 17 -8.4 14 -9.8 90 90 ESE 9 15 30.02 1017 9 14 0.00 0.00

Powered by AerisWeather